Weather History for Waterville, ME

Change the Weather History Date:

Sunday, November 10, 2013

  Actual Average Record
Temperature  
Mean Temperature 34 °F -  
Max Temperature 37 °F 48 °F 64 °F (1975)
Min Temperature 30 °F 29 °F 13 °F (1992)
Degree Days  
Heating Degree Days 32    
Moisture  
Dew Point 31 °F    
Average Humidity 88    
Maximum Humidity 93    
Minimum Humidity 69    
Precipitation  
Precipitation 0.02 in - - ()
Sea Level Pressure  
Sea Level Pressure 29.78 in    
Wind  
Wind Speed 2 mph (WNW)    
Max Wind Speed 6 mph    
Max Gust Speed -    
Visibility 7 miles    
Events      
Averages and records for this station are not official NWS values.
T = Trace of Precipitation, MM = Missing Value Source: NWS Daily Summary

Daily Weather History Graph

Daily Weather History Graph

Search for Another Location

Airport:

Trip Planner

Search our weather history database for the weather conditions in past years. The results will help you decide how hot, cold, wet, or windy it might be!

Date:

Astronomy

Nov. 10, 2013 Rise Set
Actual Time 6:28 AM EST 4:16 PM EST
Civil Twilight 5:57 AM EST 4:47 PM EST
Nautical Twilight 5:22 AM EST 5:22 PM EST
Astronomical Twilight 4:48 AM EST 5:56 PM EST
Moon 12:35 PM EST (11/10) 11:57 PM EST (11/10)
Length of Visible Light 10h 49m
Length of Day
9h 47m
First Quarter, 55% of the Moon is Illuminated
Nov 10
First Quarter
Nov 17
Full
Nov 25
Last Quarter
Dec 2
New
Dec 9
First Quarter

Hourly Weather History & Observations

Time (EST) Temp. Windchill Dew Point Humidity Pressure Visibility Wind Dir Wind Speed Gust Speed Precip Events Conditions
12:15 AM 30.2 °F 26.7 °F 21.2 °F 69% 30.03 in 10.0 mi SW 3.5 mph - N/A   Mostly Cloudy
12:35 AM 30.2 °F - 21.2 °F 69% 30.02 in 10.0 mi Calm Calm - N/A   Clear
12:55 AM 30.2 °F - 23.0 °F 75% 30.01 in 10.0 mi Calm Calm - N/A   Partly Cloudy
1:15 AM 30.2 °F - 23.0 °F 75% 30.00 in 10.0 mi Calm Calm - N/A   Mostly Cloudy
1:35 AM 30.2 °F - 24.8 °F 80% 30.00 in 10.0 mi Calm Calm - N/A   Overcast
1:55 AM 30.2 °F - 24.8 °F 80% 29.98 in 2.5 mi Calm Calm - N/A   Overcast
2:15 AM 30.2 °F - 24.8 °F 80% 29.97 in 10.0 mi Calm Calm - N/A   Mostly Cloudy
2:35 AM 30.2 °F - 26.6 °F 86% 29.96 in 10.0 mi Calm Calm - N/A   Overcast
2:55 AM 30.2 °F - 26.6 °F 86% 29.95 in 5.0 mi Calm Calm - N/A   Mostly Cloudy
3:15 AM 30.2 °F 26.7 °F 26.6 °F 86% 29.93 in 5.0 mi East 3.5 mph - N/A   Mostly Cloudy
3:35 AM 30.2 °F - 26.6 °F 86% 29.93 in 10.0 mi Calm Calm - N/A   Partly Cloudy
3:55 AM 30.2 °F - 26.6 °F 86% 29.92 in 10.0 mi Calm Calm - N/A   Mostly Cloudy
4:15 AM 30.2 °F - 26.6 °F 86% 29.91 in 10.0 mi Calm Calm - N/A   Overcast
4:35 AM 30.2 °F - 26.6 °F 86% 29.91 in 10.0 mi Calm Calm - N/A   Overcast
4:55 AM 32.0 °F 28.7 °F 26.6 °F 80% 29.90 in 10.0 mi NE 3.5 mph - N/A   Overcast
5:15 AM 30.2 °F 26.7 °F 28.4 °F 93% 29.89 in 10.0 mi NNE 3.5 mph - N/A   Overcast
5:35 AM 32.0 °F 27.5 °F 28.4 °F 87% 29.88 in 10.0 mi North 4.6 mph - N/A   Overcast
5:55 AM 32.0 °F 27.5 °F 28.4 °F 87% 29.88 in 10.0 mi NNE 4.6 mph - N/A   Overcast
6:15 AM 32.0 °F 26.4 °F 26.6 °F 80% 29.87 in 7.0 mi NNE 5.8 mph - N/A   Overcast
6:35 AM 32.0 °F 27.5 °F 26.6 °F 80% 29.86 in 10.0 mi NNE 4.6 mph - N/A   Overcast
6:55 AM 32.0 °F 28.7 °F 26.6 °F 80% 29.86 in 6.0 mi NE 3.5 mph - N/A   Overcast
7:15 AM 32.0 °F - 28.4 °F 87% 29.85 in 7.0 mi Calm Calm - N/A   Overcast
7:35 AM 32.0 °F - 28.4 °F 87% 29.84 in 5.0 mi Calm Calm - 0.01 in   Overcast
7:55 AM 32.0 °F 26.4 °F 28.4 °F 87% 29.83 in 7.0 mi NE 5.8 mph - 0.02 in   Overcast
8:15 AM 32.0 °F 28.7 °F 28.4 °F 87% 29.83 in 10.0 mi NNE 3.5 mph - N/A   Overcast
8:35 AM 32.0 °F 27.5 °F 28.4 °F 87% 29.83 in 10.0 mi North 4.6 mph - N/A   Overcast
8:55 AM 32.0 °F 27.5 °F 30.2 °F 93% 29.82 in 10.0 mi North 4.6 mph - N/A   Overcast
9:15 AM 33.8 °F 30.8 °F 30.2 °F 87% 29.81 in 9.0 mi North 3.5 mph - N/A   Overcast
9:35 AM 33.8 °F 30.8 °F 30.2 °F 87% 29.80 in 8.0 mi North 3.5 mph - N/A   Overcast
9:55 AM 33.8 °F - 30.2 °F 87% 29.79 in 7.0 mi Calm Calm - N/A   Overcast
10:15 AM 33.8 °F - 30.2 °F 87% 29.79 in 5.0 mi Calm Calm - N/A   Overcast
10:35 AM 33.8 °F 30.8 °F 30.2 °F 87% 29.77 in 5.0 mi North 3.5 mph - N/A   Overcast
10:55 AM 33.8 °F - 32.0 °F 93% 29.76 in 5.0 mi Calm Calm - N/A   Mostly Cloudy
11:15 AM 33.8 °F - 32.0 °F 93% 29.74 in 4.0 mi Calm Calm - N/A   Overcast
11:35 AM 33.8 °F - 32.0 °F 93% 29.73 in 3.0 mi Calm Calm - N/A   Overcast
11:55 AM 35.6 °F - 33.8 °F 93% 29.72 in 3.0 mi Calm Calm - N/A   Overcast
12:15 PM 35.6 °F - 33.8 °F 93% 29.70 in 4.0 mi Calm Calm - N/A   Overcast
12:35 PM 37.4 °F - 35.6 °F 93% 29.70 in 6.0 mi Calm Calm - N/A   Overcast
12:55 PM 37.4 °F 34.9 °F 35.6 °F 93% 29.69 in 9.0 mi SW 3.5 mph - N/A   Overcast
1:15 PM 37.4 °F 34.9 °F 35.6 °F 93% 29.68 in 10.0 mi NW 3.5 mph - N/A   Overcast
1:35 PM 37.4 °F 33.8 °F 33.8 °F 87% 29.68 in 8.0 mi NNW 4.6 mph - N/A   Overcast
1:55 PM 37.4 °F - 33.8 °F 87% 29.68 in 9.0 mi Calm Calm - N/A   Overcast
2:15 PM 37.4 °F - 35.6 °F 93% 29.68 in 9.0 mi Calm Calm - N/A   Mostly Cloudy
2:35 PM 37.4 °F - 33.8 °F 87% 29.68 in 10.0 mi Calm Calm - N/A   Mostly Cloudy
2:55 PM 37.4 °F 32.8 °F 35.6 °F 93% 29.69 in 10.0 mi WSW 5.8 mph - N/A   Mostly Cloudy
3:15 PM 37.4 °F - 33.8 °F 87% 29.68 in 10.0 mi Calm Calm - N/A   Overcast
3:35 PM 37.4 °F - 33.8 °F 87% 29.68 in 10.0 mi Calm Calm - N/A   Overcast
3:55 PM 37.4 °F 34.9 °F 35.6 °F 93% 29.68 in 10.0 mi WNW 3.5 mph - N/A   Overcast
4:15 PM 37.4 °F 34.9 °F 33.8 °F 87% 29.68 in 9.0 mi WSW 3.5 mph - N/A   Mostly Cloudy
4:35 PM 37.4 °F 34.9 °F 33.8 °F 87% 29.68 in 9.0 mi West 3.5 mph - N/A   Overcast
4:55 PM 37.4 °F 34.9 °F 33.8 °F 87% 29.68 in 10.0 mi SW 3.5 mph - N/A   Overcast
5:15 PM 37.4 °F - 33.8 °F 87% 29.68 in 9.0 mi Calm Calm - N/A   Mostly Cloudy
5:35 PM 37.4 °F 34.9 °F 35.6 °F 93% 29.68 in 9.0 mi WSW 3.5 mph - N/A   Partly Cloudy
5:55 PM 35.6 °F - 33.8 °F 93% 29.68 in 6.0 mi Calm Calm - N/A   Clear
6:15 PM 35.6 °F - 33.8 °F 93% 29.68 in 5.0 mi Calm Calm - N/A   Clear
6:35 PM 35.6 °F - 33.8 °F 93% 29.68 in 5.0 mi Calm Calm - N/A   Partly Cloudy
6:55 PM 35.6 °F 32.8 °F 33.8 °F 93% 29.67 in 3.0 mi SW 3.5 mph - N/A   Mostly Cloudy
7:15 PM 35.6 °F - 33.8 °F 93% 29.68 in 5.0 mi Calm Calm - N/A   Overcast
7:35 PM 35.6 °F 32.8 °F 33.8 °F 93% 29.68 in 4.0 mi West 3.5 mph - N/A   Overcast
7:55 PM 35.6 °F - 33.8 °F 93% 29.68 in 3.0 mi Calm Calm - N/A   Overcast
8:15 PM 35.6 °F - 33.8 °F 93% 29.68 in 3.0 mi Calm Calm - N/A   Overcast
8:35 PM 35.6 °F 32.8 °F 33.8 °F 93% 29.68 in 3.0 mi SW 3.5 mph - N/A   Overcast
8:55 PM 35.6 °F 31.7 °F 33.8 °F 93% 29.67 in 5.0 mi WSW 4.6 mph - N/A   Mostly Cloudy
9:15 PM 33.8 °F 29.6 °F 32.0 °F 93% 29.67 in 3.0 mi SW 4.6 mph - N/A   Scattered Clouds
9:35 PM 33.8 °F 30.8 °F 32.0 °F 93% 29.67 in 3.0 mi SW 3.5 mph - N/A   Partly Cloudy
9:55 PM 35.6 °F 32.8 °F 33.8 °F 93% 29.67 in 3.0 mi SSW 3.5 mph - N/A   Clear
10:15 PM 35.6 °F - 33.8 °F 93% 29.67 in 3.0 mi Calm Calm - N/A   Clear
10:35 PM 33.8 °F 30.8 °F 32.0 °F 93% 29.67 in 2.5 mi SSW 3.5 mph - N/A   Clear
10:55 PM 35.6 °F - 33.8 °F 93% 29.67 in 2.5 mi Calm Calm - N/A   Clear
11:15 PM 33.8 °F - 32.0 °F 93% 29.67 in 2.0 mi Calm Calm - N/A   Clear
11:35 PM 35.6 °F 32.8 °F 33.8 °F 93% 29.67 in 3.0 mi SSW 3.5 mph - N/A   Mostly Cloudy
11:55 PM 35.6 °F 32.8 °F 33.8 °F 93% 29.68 in 4.0 mi South 3.5 mph - N/A   Scattered Clouds